| time (UTC) | temp F | wind direction | speed MPH | gust MPH | rain 1hr in | rain 24hr in | rain mn in | humidity % | barometer mb |
| 20260903161808 | 87 | 187 | 1.0 | 6.0 | 0.00 | 0.00 | 0.00 | 66 | 1014.3 |
| 20260903161306 | 87 | 180 | 1.0 | 5.0 | 0.00 | 0.00 | 0.00 | 67 | 1014.3 |
| 20260903160802 | 86 | 180 | 1.0 | 4.0 | 0.00 | 0.00 | 0.00 | 68 | 1014.2 |
| 20260903160300 | 86 | 180 | 1.0 | 7.0 | 0.00 | 0.00 | 0.00 | 68 | 1014.2 |
| 20260903155758 | 86 | 180 | 2.0 | 7.0 | 0.00 | 0.00 | 0.00 | 67 | 1014.2 |
| 20260903155256 | 85 | 173 | 2.0 | 9.0 | 0.00 | 0.00 | 0.00 | 68 | 1014.2 |
| 20260903154752 | 85 | 193 | 3.0 | 9.0 | 0.00 | 0.00 | 0.00 | 68 | 1014.2 |
| 20260903154250 | 85 | 194 | 2.0 | 6.0 | 0.00 | 0.00 | 0.00 | 69 | 1014.2 |
| 20260903153748 | 85 | 193 | 1.0 | 6.0 | 0.00 | 0.00 | 0.00 | 69 | 1014.2 |
| 20260903153246 | 85 | 194 | 1.0 | 8.0 | 0.00 | 0.00 | 0.00 | 71 | 1014.1 |
| 20260903152742 | 85 | 1.0 | 8.0 | 0.00 | 0.00 | 0.00 | 71 | 1014.1 | |
| 20260903152240 | 85 | 217 | 2.0 | 8.0 | 0.00 | 0.00 | 0.00 | 72 | 1014.1 |
| 20260903151738 | 84 | 190 | 2.0 | 6.0 | 0.00 | 0.00 | 0.00 | 73 | 1014.0 |
| 20260903151236 | 84 | 182 | 2.0 | 6.0 | 0.00 | 0.00 | 0.00 | 73 | 1014.0 |
| 20260903150732 | 84 | 182 | 1.0 | 8.0 | 0.00 | 0.00 | 0.00 | 74 | 1014.1 |
| 20260903150230 | 84 | 181 | 3.0 | 8.0 | 0.00 | 0.00 | 0.00 | 74 | 1014.1 |
| 20260903145728 | 84 | 195 | 1.0 | 5.0 | 0.00 | 0.00 | 0.00 | 75 | 1014.1 |
| 20260903145226 | 83 | 194 | 1.0 | 5.0 | 0.00 | 0.00 | 0.00 | 76 | 1014.0 |
| 20260903144722 | 83 | 195 | 1.0 | 5.0 | 0.00 | 0.00 | 0.00 | 76 | 1014.1 |
| 20260903144220 | 83 | 196 | 2.0 | 4.0 | 0.00 | 0.00 | 0.00 | 76 | 1014.1 |
| 20260903143718 | 83 | 196 | 1.0 | 5.0 | 0.00 | 0.00 | 0.00 | 77 | 1014.1 |
| 20260903143216 | 82 | 195 | 2.0 | 6.0 | 0.00 | 0.00 | 0.00 | 78 | 1014.1 |
| 20260903142712 | 82 | 194 | 1.0 | 6.0 | 0.00 | 0.00 | 0.00 | 78 | 1014.1 |
| 20260903142210 | 82 | 196 | 1.0 | 6.0 | 0.00 | 0.00 | 0.00 | 79 | 1014.1 |
| 20260903141708 | 82 | 199 | 2.0 | 6.0 | 0.00 | 0.00 | 0.00 | 80 | 1014.0 |
| 20260903141206 | 81 | 202 | 1.0 | 8.0 | 0.00 | 0.00 | 0.00 | 80 | 1014.0 |
| 20260903140702 | 81 | 200 | 2.0 | 8.0 | 0.00 | 0.00 | 0.00 | 81 | 1014.0 |
| 20260903140200 | 81 | 190 | 2.0 | 6.0 | 0.00 | 0.00 | 0.00 | 82 | 1014.1 |
| 20260903135658 | 81 | 190 | 1.0 | 8.0 | 0.00 | 0.00 | 0.00 | 82 | 1014.1 |
| 20260903135156 | 81 | 179 | 1.0 | 6.0 | 0.00 | 0.00 | 0.00 | 83 | 1014.0 |
| 20260903134652 | 80 | 180 | 2.0 | 7.0 | 0.00 | 0.00 | 0.00 | 83 | 1014.1 |
| 20260903134150 | 80 | 178 | 3.0 | 7.0 | 0.00 | 0.00 | 0.00 | 83 | 1014.1 |
| 20260903133648 | 80 | 184 | 1.0 | 6.0 | 0.00 | 0.00 | 0.00 | 83 | 1014.2 |
| 20260903133146 | 80 | 187 | 1.0 | 6.0 | 0.00 | 0.00 | 0.00 | 84 | 1014.2 |
| 20260903132642 | 80 | 188 | 1.0 | 7.0 | 0.00 | 0.00 | 0.00 | 84 | 1014.1 |
| 20260903132140 | 80 | 169 | 2.0 | 7.0 | 0.00 | 0.00 | 0.00 | 84 | 1014.2 |
| 20260903131636 | 80 | 169 | 1.0 | 3.0 | 0.00 | 0.00 | 0.00 | 84 | 1014.2 |
| 20260903131134 | 80 | 0.0 | 3.0 | 0.00 | 0.00 | 0.00 | 85 | 1014.2 | |
| 20260903130632 | 80 | 0.0 | 6.0 | 0.00 | 0.00 | 0.00 | 85 | 1014.2 | |
| 20260903130130 | 80 | 169 | 1.0 | 6.0 | 0.00 | 0.00 | 0.00 | 85 | 1014.2 |
| 20260903125626 | 80 | 169 | 1.0 | 5.0 | 0.00 | 0.00 | 0.00 | 85 | 1014.1 |
| 20260903125124 | 79 | 0.0 | 5.0 | 0.00 | 0.00 | 0.00 | 85 | 1014.1 | |
| 20260903124622 | 79 | 169 | 1.0 | 5.0 | 0.00 | 0.00 | 0.00 | 85 | 1014.0 |
| 20260903124120 | 79 | 0.0 | 5.0 | 0.00 | 0.00 | 0.00 | 86 | 1014.0 | |
| 20260903123616 | 79 | 169 | 1.0 | 6.0 | 0.00 | 0.00 | 0.00 | 86 | 1014.0 |
| 20260903123114 | 79 | 169 | 2.0 | 6.0 | 0.00 | 0.00 | 0.00 | 86 | 1013.9 |
| 20260903122612 | 79 | 0.0 | 3.0 | 0.00 | 0.00 | 0.00 | 86 | 1013.9 | |
| 20260903122110 | 79 | 168 | 1.0 | 4.0 | 0.00 | 0.00 | 0.00 | 86 | 1013.8 |
| 20260903121606 | 79 | 0.0 | 3.0 | 0.00 | 0.00 | 0.00 | 86 | 1013.8 | |
| 20260903121104 | 79 | 0.0 | 6.0 | 0.00 | 0.00 | 0.00 | 85 | 1013.8 | |
| 20260903120602 | 79 | 168 | 1.0 | 7.0 | 0.00 | 0.00 | 0.00 | 85 | 1013.8 |
| 20260903120100 | 79 | 168 | 1.0 | 7.0 | 0.00 | 0.00 | 0.00 | 85 | 1013.7 |
| 20260903115556 | 79 | 168 | 1.0 | 5.0 | 0.00 | 0.00 | 0.00 | 85 | 1013.6 |
| 20260903115054 | 79 | 168 | 1.0 | 6.0 | 0.00 | 0.00 | 0.00 | 85 | 1013.6 |
| 20260903114552 | 79 | 167 | 2.0 | 7.0 | 0.00 | 0.00 | 0.00 | 85 | 1013.6 |
| 20260903114050 | 79 | 167 | 2.0 | 7.0 | 0.00 | 0.00 | 0.00 | 85 | 1013.6 |
| 20260903113546 | 79 | 167 | 2.0 | 7.0 | 0.00 | 0.00 | 0.00 | 85 | 1013.6 |
| 20260903113044 | 79 | 167 | 2.0 | 5.0 | 0.00 | 0.00 | 0.00 | 85 | 1013.7 |
| 20260903112542 | 79 | 0.0 | 6.0 | 0.00 | 0.00 | 0.00 | 86 | 1013.7 | |
| 20260903112040 | 79 | 167 | 2.0 | 6.0 | 0.00 | 0.00 | 0.00 | 86 | 1013.7 |
| 20260903111536 | 79 | 167 | 1.0 | 6.0 | 0.00 | 0.00 | 0.00 | 86 | 1013.7 |
| 20260903111034 | 79 | 0.0 | 6.0 | 0.00 | 0.00 | 0.00 | 86 | 1013.7 | |
| 20260903110532 | 79 | 167 | 1.0 | 5.0 | 0.00 | 0.00 | 0.00 | 86 | 1013.6 |
| 20260903110030 | 79 | 167 | 1.0 | 8.0 | 0.00 | 0.00 | 0.00 | 86 | 1013.5 |
| 20260903105526 | 79 | 169 | 2.0 | 8.0 | 0.00 | 0.00 | 0.00 | 86 | 1013.5 |
| 20260903105024 | 79 | 0.0 | 7.0 | 0.00 | 0.00 | 0.00 | 86 | 1013.4 | |
| 20260903104520 | 79 | 166 | 1.0 | 6.0 | 0.00 | 0.00 | 0.00 | 86 | 1013.4 |
| 20260903104018 | 79 | 166 | 1.0 | 5.0 | 0.00 | 0.00 | 0.00 | 86 | 1013.3 |
| 20260903103516 | 79 | 166 | 1.0 | 9.0 | 0.00 | 0.00 | 0.00 | 86 | 1013.2 |
| 20260903103014 | 79 | 166 | 1.0 | 9.0 | 0.00 | 0.00 | 0.00 | 86 | 1013.2 |
| 20260903102510 | 79 | 169 | 1.0 | 7.0 | 0.00 | 0.00 | 0.00 | 85 | 1013.2 |
| 20260903102008 | 79 | 169 | 1.0 | 7.0 | 0.00 | 0.00 | 0.00 | 85 | 1013.2 |
| 20260903101506 | 79 | 167 | 1.0 | 8.0 | 0.00 | 0.00 | 0.00 | 85 | 1013.2 |
| 20260903101004 | 79 | 167 | 1.0 | 8.0 | 0.00 | 0.00 | 0.00 | 85 | 1013.2 |
| 20260903100500 | 79 | 167 | 1.0 | 5.0 | 0.00 | 0.00 | 0.00 | 85 | 1013.2 |
| 20260903095958 | 79 | 1.0 | 5.0 | 0.00 | 0.00 | 0.00 | 85 | 1013.1 | |
| 20260903095456 | 79 | 0.0 | 6.0 | 0.00 | 0.00 | 0.00 | 85 | 1013.1 | |
| 20260903094954 | 79 | 166 | 2.0 | 7.0 | 0.00 | 0.00 | 0.00 | 85 | 1013.2 |
| 20260903094450 | 79 | 167 | 3.0 | 7.0 | 0.00 | 0.00 | 0.00 | 85 | 1013.2 |
| 20260903093948 | 79 | 166 | 1.0 | 7.0 | 0.00 | 0.00 | 0.00 | 84 | 1013.2 |
| 20260903093446 | 79 | 165 | 1.0 | 5.0 | 0.00 | 0.00 | 0.00 | 84 | 1013.3 |
| 20260903092944 | 79 | 165 | 1.0 | 5.0 | 0.00 | 0.00 | 0.00 | 84 | 1013.3 |
| 20260903092440 | 79 | 1.0 | 3.0 | 0.00 | 0.00 | 0.00 | 84 | 1013.4 | |
| 20260903091938 | 79 | 165 | 1.0 | 3.0 | 0.00 | 0.00 | 0.00 | 84 | 1013.4 |
| 20260903091436 | 79 | 165 | 1.0 | 5.0 | 0.00 | 0.00 | 0.00 | 84 | 1013.6 |
| 20260903090934 | 80 | 165 | 1.0 | 5.0 | 0.00 | 0.00 | 0.00 | 84 | 1013.6 |
| 20260903090430 | 80 | 0.0 | 5.0 | 0.00 | 0.00 | 0.00 | 83 | 1013.5 | |
| 20260903085928 | 80 | 168 | 2.0 | 5.0 | 0.00 | 0.00 | 0.00 | 83 | 1013.4 |
| 20260903085426 | 80 | 167 | 2.0 | 5.0 | 0.00 | 0.00 | 0.00 | 83 | 1013.5 |
| 20260903084924 | 80 | 169 | 1.0 | 4.0 | 0.00 | 0.00 | 0.00 | 83 | 1013.5 |
| 20260903084420 | 80 | 0.0 | 3.0 | 0.00 | 0.00 | 0.00 | 83 | 1013.6 | |
| 20260903083918 | 80 | 169 | 1.0 | 3.0 | 0.00 | 0.00 | 0.00 | 82 | 1013.6 |
| 20260903083416 | 80 | 0.0 | 5.0 | 0.00 | 0.00 | 0.00 | 82 | 1013.6 | |
| 20260903082913 | 80 | 0.0 | 6.0 | 0.00 | 0.00 | 0.00 | 82 | 1013.5 | |
| 20260903082410 | 80 | 1.0 | 6.0 | 0.00 | 0.00 | 0.00 | 82 | 1013.6 | |
| 20260903081907 | 80 | 169 | 1.0 | 7.0 | 0.00 | 0.00 | 0.00 | 81 | 1013.5 |
| 20260903081403 | 80 | 169 | 1.0 | 8.0 | 0.00 | 0.00 | 0.00 | 81 | 1013.5 |
| 20260903080901 | 80 | 166 | 3.0 | 9.0 | 0.00 | 0.00 | 0.00 | 81 | 1013.5 |
| 20260903080359 | 80 | 165 | 2.0 | 7.0 | 0.00 | 0.00 | 0.00 | 80 | 1013.5 |
| 20260903075857 | 80 | 165 | 1.0 | 7.0 | 0.00 | 0.00 | 0.00 | 80 | 1013.6 |
| 20260903075353 | 80 | 165 | 1.0 | 6.0 | 0.00 | 0.00 | 0.00 | 79 | 1013.5 |
| 20260903074851 | 80 | 164 | 2.0 | 6.0 | 0.00 | 0.00 | 0.00 | 79 | 1013.6 |
| 20260903074349 | 80 | 164 | 1.0 | 6.0 | 0.00 | 0.00 | 0.00 | 79 | 1013.6 |
| 20260903073847 | 80 | 164 | 1.0 | 6.0 | 0.00 | 0.00 | 0.00 | 79 | 1013.6 |
| 20260903073343 | 80 | 164 | 1.0 | 6.0 | 0.00 | 0.00 | 0.00 | 79 | 1013.6 |
| 20260903072841 | 80 | 0.0 | 7.0 | 0.00 | 0.00 | 0.00 | 78 | 1013.6 | |
| 20260903072339 | 80 | 163 | 1.0 | 7.0 | 0.00 | 0.00 | 0.00 | 78 | 1013.6 |
| 20260903071837 | 80 | 0.0 | 0.0 | 0.00 | 0.00 | 0.00 | 78 | 1013.7 | |
| 20260903071333 | 80 | 0.0 | 3.0 | 0.00 | 0.00 | 0.00 | 78 | 1013.7 | |
| 20260903070831 | 80 | 0.0 | 3.0 | 0.00 | 0.00 | 0.00 | 78 | 1013.8 | |
| 20260903070329 | 80 | 0.0 | 2.0 | 0.00 | 0.00 | 0.00 | 78 | 1013.8 | |
| 20260903065827 | 80 | 0.0 | 3.0 | 0.00 | 0.00 | 0.00 | 78 | 1013.8 | |
| 20260903065323 | 80 | 0.0 | 3.0 | 0.00 | 0.00 | 0.00 | 78 | 1013.8 | |
| 20260903064821 | 80 | 0.0 | 1.0 | 0.00 | 0.00 | 0.00 | 79 | 1013.8 | |
| 20260903064319 | 80 | 0.0 | 2.0 | 0.00 | 0.00 | 0.00 | 79 | 1013.9 | |
| 20260903063817 | 80 | 0.0 | 2.0 | 0.00 | 0.00 | 0.00 | 79 | 1014.0 | |
| 20260903063314 | 80 | 0.0 | 1.0 | 0.00 | 0.00 | 0.00 | 79 | 1014.0 | |
| 20260903062811 | 80 | 0.0 | 1.0 | 0.00 | 0.00 | 0.00 | 79 | 1014.1 | |
| 20260903062309 | 80 | 0.0 | 0.0 | 0.00 | 0.00 | 0.00 | 79 | 1014.1 | |
| 20260903061807 | 80 | 0.0 | 0.0 | 0.00 | 0.00 | 0.00 | 79 | 1014.1 | |
| 20260903061303 | 80 | 0.0 | 0.0 | 0.00 | 0.00 | 0.00 | 79 | 1014.1 | |
| 20260903060801 | 80 | 0.0 | 0.0 | 0.00 | 0.00 | 0.00 | 79 | 1014.1 | |
| 20260903060259 | 80 | 0.0 | 0.0 | 0.00 | 0.00 | 0.00 | 79 | 1014.1 | |
| 20260903055757 | 80 | 0.0 | 0.0 | 0.00 | 0.00 | 0.00 | 79 | 1014.1 | |
| 20260903055253 | 80 | 0.0 | 2.0 | 0.00 | 0.00 | 0.00 | 78 | 1014.1 | |
| 20260903054751 | 80 | 0.0 | 2.0 | 0.00 | 0.00 | 0.00 | 78 | 1014.1 | |
| 20260903054249 | 80 | 0.0 | 3.0 | 0.00 | 0.00 | 0.00 | 78 | 1014.2 | |
| 20260903053745 | 80 | 0.0 | 3.0 | 0.00 | 0.00 | 0.00 | 77 | 1014.1 | |
| 20260903053243 | 80 | 0.0 | 5.0 | 0.00 | 0.00 | 0.00 | 77 | 1014.1 | |
| 20260903052741 | 81 | 0.0 | 2.0 | 0.00 | 0.00 | 0.00 | 76 | 1014.1 | |
| 20260903052239 | 81 | 163 | 1.0 | 3.0 | 0.00 | 0.00 | 0.00 | 76 | 1014.1 |
| 20260903051735 | 81 | 0.0 | 7.0 | 0.00 | 0.00 | 0.00 | 75 | 1014.1 | |
| 20260903051233 | 81 | 1.0 | 7.0 | 0.00 | 0.00 | 0.00 | 75 | 1014.1 | |
| 20260903050731 | 81 | 0.0 | 5.0 | 0.00 | 0.00 | 0.00 | 74 | 1014.1 | |
| 20260903050227 | 81 | 0.0 | 5.0 | 0.00 | 0.00 | 0.00 | 74 | 1014.0 | |
| 20260903045725 | 82 | 0.0 | 3.0 | 0.00 | 0.00 | 0.00 | 73 | 1014.0 | |
| 20260903045223 | 82 | 1.0 | 3.0 | 0.00 | 0.00 | 0.00 | 72 | 1014.0 | |
| 20260903044721 | 82 | 0.0 | 3.0 | 0.00 | 0.00 | 0.00 | 72 | 1014.0 | |
| 20260903044217 | 82 | 0.0 | 2.0 | 0.00 | 0.00 | 0.00 | 71 | 1014.0 | |
| 20260903043715 | 82 | 0.0 | 2.0 | 0.00 | 0.00 | 0.00 | 71 | 1014.0 | |
| 20260903043213 | 82 | 0.0 | 2.0 | 0.00 | 0.00 | 0.00 | 70 | 1013.9 | |
| 20260903042711 | 82 | 0.0 | 3.0 | 0.00 | 0.00 | 0.00 | 70 | 1013.9 | |
| 20260903042207 | 83 | 175 | 1.0 | 3.0 | 0.00 | 0.00 | 0.00 | 70 | 1013.9 |
| 20260903041705 | 83 | 0.0 | 2.0 | 0.00 | 0.00 | 0.00 | 69 | 1013.9 | |
| 20260903041203 | 83 | 0.0 | 4.0 | 0.00 | 0.00 | 0.00 | 68 | 1014.0 | |
| 20260903040701 | 83 | 175 | 1.0 | 5.0 | 0.00 | 0.00 | 0.00 | 67 | 1014.1 |
| 20260903040157 | 84 | 175 | 1.0 | 6.0 | 0.00 | 0.00 | 0.00 | 67 | 1014.2 |
| 20260903035655 | 84 | 177 | 1.0 | 6.0 | 0.00 | 0.00 | 0.00 | 66 | 1014.1 |
| 20260903035153 | 84 | 0.0 | 4.0 | 0.00 | 0.00 | 0.00 | 66 | 1014.1 | |
| 20260903034651 | 85 | 0.0 | 2.0 | 0.00 | 0.00 | 0.00 | 65 | 1014.1 | |
| 20260903034147 | 85 | 0.0 | 2.0 | 0.00 | 0.00 | 0.00 | 65 | 1014.2 | |
| 20260903033645 | 85 | 0.0 | 2.0 | 0.00 | 0.00 | 0.00 | 64 | 1014.1 | |
| 20260903033143 | 85 | 0.0 | 1.0 | 0.00 | 0.00 | 0.00 | 63 | 1014.1 | |
| 20260903032641 | 86 | 0.0 | 2.0 | 0.00 | 0.00 | 0.00 | 62 | 1013.9 | |
| 20260903032137 | 86 | 0.0 | 2.0 | 0.00 | 0.00 | 0.00 | 61 | 1013.8 | |
| 20260903031635 | 86 | 0.0 | 1.0 | 0.00 | 0.00 | 0.00 | 61 | 1013.7 | |
| 20260903031133 | 86 | 0.0 | 2.0 | 0.00 | 0.00 | 0.00 | 60 | 1013.6 | |
| 20260903030631 | 86 | 0.0 | 2.0 | 0.00 | 0.00 | 0.00 | 60 | 1013.4 | |
| 20260903025625 | 86 | 0.0 | 3.0 | 0.00 | 0.00 | 0.00 | 59 | 1013.4 | |
| 20260903025123 | 86 | 1.0 | 3.0 | 0.00 | 0.00 | 0.00 | 59 | 1013.3 | |
| 20260903024621 | 86 | 0.0 | 2.0 | 0.00 | 0.00 | 0.00 | 59 | 1013.3 | |
| 20260903024117 | 86 | 0.0 | 0.0 | 0.00 | 0.00 | 0.00 | 60 | 1013.1 | |
| 20260903023615 | 86 | 0.0 | 0.0 | 0.00 | 0.00 | 0.00 | 59 | 1012.9 | |
| 20260903023113 | 86 | 0.0 | 0.0 | 0.00 | 0.00 | 0.00 | 59 | 1012.7 | |
| 20260903022611 | 86 | 0.0 | 0.0 | 0.00 | 0.00 | 0.00 | 59 | 1012.6 | |
| 20260903022107 | 86 | 0.0 | 0.0 | 0.00 | 0.00 | 0.00 | 58 | 1012.6 | |
| 20260903021605 | 87 | 0.0 | 0.0 | 0.00 | 0.00 | 0.00 | 58 | 1012.5 | |
| 20260903021101 | 87 | 0.0 | 0.0 | 0.00 | 0.00 | 0.00 | 58 | 1012.3 | |
| 20260903020559 | 87 | 0.0 | 0.0 | 0.00 | 0.00 | 0.00 | 57 | 1012.2 | |
| 20260903020057 | 87 | 0.0 | 0.0 | 0.00 | 0.00 | 0.00 | 57 | 1012.2 | |
| 20260903015555 | 87 | 0.0 | 0.0 | 0.00 | 0.00 | 0.00 | 57 | 1012.1 | |
| 20260903015051 | 88 | 0.0 | 0.0 | 0.00 | 0.00 | 0.00 | 57 | 1012.0 | |
| 20260903014549 | 88 | 0.0 | 0.0 | 0.00 | 0.00 | 0.00 | 57 | 1012.0 | |
| 20260903014049 | 88 | 0.0 | 0.0 | 0.00 | 0.00 | 0.00 | 57 | 1011.9 | |
| 20260903013543 | 89 | 0.0 | 0.0 | 0.00 | 0.00 | 0.00 | 57 | 1011.9 | |
| 20260903013043 | 89 | 0.0 | 0.0 | 0.00 | 0.00 | 0.00 | 57 | 1011.9 | |
| 20260903012541 | 89 | 0.0 | 0.0 | 0.00 | 0.00 | 0.00 | 56 | 1011.9 | |
| 20260903012037 | 89 | 0.0 | 0.0 | 0.00 | 0.00 | 0.00 | 56 | 1012.0 | |
| 20260903011535 | 89 | 0.0 | 0.0 | 0.00 | 0.00 | 0.00 | 56 | 1012.0 | |
| 20260903011033 | 90 | 0.0 | 0.0 | 0.00 | 0.00 | 0.00 | 56 | 1012.0 | |
| 20260903010531 | 90 | 0.0 | 0.0 | 0.00 | 0.00 | 0.00 | 56 | 1011.9 | |
| 20260903010027 | 90 | 0.0 | 0.0 | 0.00 | 0.00 | 0.00 | 55 | 1011.9 | |
| 20260903005525 | 91 | 0.0 | 0.0 | 0.00 | 0.00 | 0.00 | 53 | 1011.9 | |
| 20260903005023 | 91 | 0.0 | 0.0 | 0.00 | 0.00 | 0.00 | 52 | 1011.8 | |
| 20260903004521 | 91 | 0.0 | 0.0 | 0.00 | 0.00 | 0.00 | 53 | 1011.8 | |
| 20260903004017 | 91 | 0.0 | 0.0 | 0.00 | 0.00 | 0.00 | 53 | 1011.9 | |
| 20260903003515 | 91 | 0.0 | 0.0 | 0.00 | 0.00 | 0.00 | 51 | 1011.8 | |
| 20260903003013 | 91 | 0.0 | 0.0 | 0.00 | 0.00 | 0.00 | 53 | 1011.9 | |
| 20260903002511 | 91 | 0.0 | 0.0 | 0.00 | 0.00 | 0.00 | 53 | 1011.9 | |
| 20260903002007 | 92 | 0.0 | 0.0 | 0.00 | 0.00 | 0.00 | 52 | 1011.8 | |
| 20260903001505 | 91 | 0.0 | 0.0 | 0.00 | 0.00 | 0.00 | 53 | 1011.8 | |
| 20260903001003 | 91 | 0.0 | 0.0 | 0.00 | 0.00 | 0.00 | 53 | 1011.8 | |
| 20260903000501 | 91 | 0.0 | 0.0 | 0.00 | 0.00 | 0.00 | 52 | 1011.9 | |
| 20260902235956 | 91 | 0.0 | 0.0 | 0.00 | 0.00 | 0.00 | 52 | 1011.9 | |
| 20260902235454 | 91 | 0.0 | 0.0 | 0.00 | 0.00 | 0.00 | 53 | 1011.8 | |
| 20260902234952 | 91 | 0.0 | 0.0 | 0.00 | 0.00 | 0.00 | 52 | 1011.8 | |
| 20260902234450 | 91 | 0.0 | 0.0 | 0.00 | 0.00 | 0.00 | 52 | 1011.8 | |
| 20260902233946 | 91 | 0.0 | 0.0 | 0.00 | 0.00 | 0.00 | 53 | 1011.9 | |
| 20260902233444 | 91 | 0.0 | 1.0 | 0.00 | 0.00 | 0.00 | 51 | 1011.9 | |
| 20260902232942 | 91 | 0.0 | 2.0 | 0.00 | 0.00 | 0.00 | 50 | 1011.9 | |
| 20260902232440 | 91 | 0.0 | 1.0 | 0.00 | 0.00 | 0.00 | 50 | 1011.9 | |
| 20260902231936 | 91 | 0.0 | 2.0 | 0.00 | 0.00 | 0.00 | 49 | 1011.8 | |
| 20260902231434 | 91 | 0.0 | 2.0 | 0.00 | 0.00 | 0.00 | 49 | 1011.8 | |
| 20260902230932 | 90 | 180 | 1.0 | 4.0 | 0.00 | 0.00 | 0.00 | 50 | 1011.8 |
| 20260902230430 | 90 | 180 | 1.0 | 9.0 | 0.00 | 0.00 | 0.00 | 51 | 1011.8 |
| 20260902225926 | 91 | 191 | 3.0 | 13.0 | 0.00 | 0.00 | 0.00 | 51 | 1011.9 |
| 20260902225424 | 94 | 166 | 5.0 | 12.0 | 0.00 | 0.00 | 0.00 | 47 | 1011.8 |
| 20260902224920 | 98 | 0.0 | 4.0 | 0.00 | 0.00 | 0.00 | 42 | 1011.8 | |
| 20260902224418 | 99 | 0.0 | 4.0 | 0.00 | 0.00 | 0.00 | 39 | 1011.7 | |
| 20260902223916 | 99 | 0.0 | 0.0 | 0.00 | 0.00 | 0.00 | 38 | 1011.6 | |
| 20260902223414 | 99 | 0.0 | 0.0 | 0.00 | 0.00 | 0.00 | 39 | 1011.5 | |
| 20260902222910 | 98 | 0.0 | 0.0 | 0.00 | 0.00 | 0.00 | 41 | 1011.5 | |
| 20260902222408 | 98 | 0.0 | 0.0 | 0.00 | 0.00 | 0.00 | 40 | 1011.6 | |
| 20260902221906 | 98 | 0.0 | 1.0 | 0.00 | 0.00 | 0.00 | 41 | 1011.6 | |
| 20260902221404 | 98 | 0.0 | 1.0 | 0.00 | 0.00 | 0.00 | 40 | 1011.6 | |
| 20260902220900 | 99 | 0.0 | 1.0 | 0.00 | 0.00 | 0.00 | 39 | 1011.7 | |
| 20260902220358 | 100 | 0.0 | 2.0 | 0.00 | 0.00 | 0.00 | 38 | 1011.8 | |
| 20260902215856 | 100 | 0.0 | 3.0 | 0.00 | 0.00 | 0.00 | 37 | 1011.8 | |
| 20260902215354 | 101 | 268 | 1.0 | 3.0 | 0.00 | 0.00 | 0.00 | 37 | 1011.8 |
| 20260902214850 | 101 | 0.0 | 4.0 | 0.00 | 0.00 | 0.00 | 37 | 1011.9 | |
| 20260902214348 | 102 | 268 | 1.0 | 3.0 | 0.00 | 0.00 | 0.00 | 36 | 1011.9 |
| 20260902213846 | 102 | 0.0 | 8.0 | 0.00 | 0.00 | 0.00 | 36 | 1011.9 | |
| 20260902213344 | 102 | 263 | 1.0 | 8.0 | 0.00 | 0.00 | 0.00 | 36 | 1011.9 |
| 20260902212840 | 102 | 0.0 | 7.0 | 0.00 | 0.00 | 0.00 | 36 | 1012.0 | |
| 20260902212338 | 102 | 1.0 | 7.0 | 0.00 | 0.00 | 0.00 | 36 | 1012.0 | |
| 20260902211836 | 102 | 0.0 | 5.0 | 0.00 | 0.00 | 0.00 | 36 | 1011.9 | |
| 20260902211334 | 101 | 1.0 | 3.0 | 0.00 | 0.00 | 0.00 | 36 | 1012.0 | |
| 20260902210830 | 100 | 0.0 | 3.0 | 0.00 | 0.00 | 0.00 | 38 | 1012.1 | |
| 20260902210328 | 99 | 254 | 1.0 | 3.0 | 0.00 | 0.00 | 0.00 | 39 | 1012.2 |
| 20260902205826 | 98 | 1.0 | 3.0 | 0.00 | 0.00 | 0.00 | 40 | 1012.2 | |
| 20260902205324 | 98 | 0.0 | 3.0 | 0.00 | 0.00 | 0.00 | 40 | 1012.2 | |
| 20260902204820 | 98 | 254 | 1.0 | 3.0 | 0.00 | 0.00 | 0.00 | 41 | 1012.4 |
| 20260902204318 | 97 | 0.0 | 2.0 | 0.00 | 0.00 | 0.00 | 43 | 1012.4 | |
| 20260902203816 | 97 | 0.0 | 1.0 | 0.00 | 0.00 | 0.00 | 44 | 1012.5 | |
| 20260902203314 | 97 | 0.0 | 1.0 | 0.00 | 0.00 | 0.00 | 45 | 1012.6 | |
| 20260902202810 | 96 | 0.0 | 1.0 | 0.00 | 0.00 | 0.00 | 44 | 1012.6 | |
| 20260902202308 | 96 | 0.0 | 1.0 | 0.00 | 0.00 | 0.00 | 44 | 1012.7 | |
| 20260902201806 | 96 | 0.0 | 1.0 | 0.00 | 0.00 | 0.00 | 45 | 1012.8 | |
| 20260902201302 | 97 | 0.0 | 1.0 | 0.00 | 0.00 | 0.00 | 43 | 1012.8 | |
| 20260902200800 | 97 | 0.0 | 3.0 | 0.00 | 0.00 | 0.00 | 44 | 1012.9 | |
| 20260902200258 | 97 | 254 | 1.0 | 3.0 | 0.00 | 0.00 | 0.00 | 43 | 1013.1 |
| 20260902195754 | 96 | 0.0 | 3.0 | 0.00 | 0.00 | 0.00 | 43 | 1013.2 | |
| 20260902195252 | 96 | 0.0 | 3.0 | 0.00 | 0.00 | 0.00 | 43 | 1013.2 | |
| 20260902194750 | 96 | 0.0 | 2.0 | 0.00 | 0.00 | 0.00 | 45 | 1013.3 | |
| 20260902194248 | 96 | 0.0 | 3.0 | 0.00 | 0.00 | 0.00 | 44 | 1013.4 | |
| 20260902193744 | 96 | 254 | 1.0 | 8.0 | 0.00 | 0.00 | 0.00 | 44 | 1013.4 |
| 20260902193242 | 97 | 245 | 1.0 | 7.0 | 0.00 | 0.00 | 0.00 | 44 | 1013.5 |
| 20260902192740 | 98 | 215 | 1.0 | 6.0 | 0.00 | 0.00 | 0.00 | 42 | 1013.4 |
| 20260902192238 | 98 | 0.0 | 2.0 | 0.00 | 0.00 | 0.00 | 41 | 1013.6 | |
| 20260902191734 | 99 | 0.0 | 3.0 | 0.00 | 0.00 | 0.00 | 41 | 1013.7 | |
| 20260902191232 | 99 | 0.0 | 5.0 | 0.00 | 0.00 | 0.00 | 41 | 1013.7 | |
| 20260902190730 | 99 | 204 | 2.0 | 5.0 | 0.00 | 0.00 | 0.00 | 40 | 1013.8 |
| 20260902190228 | 98 | 0.0 | 3.0 | 0.00 | 0.00 | 0.00 | 41 | 1013.9 | |
| 20260902185724 | 98 | 0.0 | 5.0 | 0.00 | 0.00 | 0.00 | 41 | 1013.9 | |
| 20260902185222 | 97 | 205 | 1.0 | 5.0 | 0.00 | 0.00 | 0.00 | 42 | 1014.0 |
| 20260902184720 | 97 | 201 | 1.0 | 3.0 | 0.00 | 0.00 | 0.00 | 43 | 1014.2 |
| 20260902184218 | 96 | 1.0 | 3.0 | 0.00 | 0.00 | 0.00 | 44 | 1014.3 | |
| 20260902183714 | 95 | 201 | 1.0 | 3.0 | 0.00 | 0.00 | 0.00 | 45 | 1014.4 |
| 20260902183212 | 95 | 0.0 | 3.0 | 0.00 | 0.00 | 0.00 | 45 | 1014.4 | |
| 20260902182710 | 96 | 0.0 | 6.0 | 0.00 | 0.00 | 0.00 | 44 | 1014.6 | |
| 20260902182208 | 96 | 201 | 1.0 | 6.0 | 0.00 | 0.00 | 0.00 | 44 | 1014.6 |
| 20260902181704 | 96 | 201 | 1.0 | 3.0 | 0.00 | 0.00 | 0.00 | 44 | 1014.6 |
| 20260902181202 | 96 | 201 | 1.0 | 3.0 | 0.00 | 0.00 | 0.00 | 44 | 1014.8 |
| 20260902180700 | 97 | 0.0 | 4.0 | 0.00 | 0.00 | 0.00 | 43 | 1015.0 | |
| 20260902180158 | 97 | 201 | 1.0 | 4.0 | 0.00 | 0.00 | 0.00 | 44 | 1015.1 |
| 20260902175654 | 96 | 201 | 1.0 | 5.0 | 0.00 | 0.00 | 0.00 | 44 | 1015.1 |
| 20260902175152 | 95 | 200 | 2.0 | 5.0 | 0.00 | 0.00 | 0.00 | 46 | 1015.2 |
| 20260902174650 | 95 | 0.0 | 3.0 | 0.00 | 0.00 | 0.00 | 46 | 1015.3 | |
| 20260902174148 | 95 | 0.0 | 2.0 | 0.00 | 0.00 | 0.00 | 46 | 1015.4 | |
| 20260902173644 | 94 | 0.0 | 4.0 | 0.00 | 0.00 | 0.00 | 47 | 1015.4 | |
| 20260902173142 | 94 | 200 | 1.0 | 4.0 | 0.00 | 0.00 | 0.00 | 47 | 1015.5 |
| 20260902172638 | 93 | 0.0 | 3.0 | 0.00 | 0.00 | 0.00 | 49 | 1015.6 | |
| 20260902172136 | 94 | 200 | 1.0 | 6.0 | 0.00 | 0.00 | 0.00 | 47 | 1015.6 |
| 20260902171634 | 94 | 0.0 | 6.0 | 0.00 | 0.00 | 0.00 | 46 | 1015.7 | |
| 20260902171132 | 94 | 200 | 1.0 | 5.0 | 0.00 | 0.00 | 0.00 | 48 | 1015.8 |
| 20260902170628 | 94 | 200 | 1.0 | 8.0 | 0.00 | 0.00 | 0.00 | 47 | 1015.7 |
| 20260902170126 | 94 | 199 | 1.0 | 8.0 | 0.00 | 0.00 | 0.00 | 47 | 1015.8 |
| 20260902165624 | 94 | 0.0 | 4.0 | 0.00 | 0.00 | 0.00 | 48 | 1016.0 | |
| 20260902165122 | 94 | 0.0 | 4.0 | 0.00 | 0.00 | 0.00 | 49 | 1016.0 | |
| 20260902164618 | 93 | 1.0 | 7.0 | 0.00 | 0.00 | 0.00 | 49 | 1016.1 | |
| 20260902164116 | 93 | 196 | 1.0 | 7.0 | 0.00 | 0.00 | 0.00 | 50 | 1016.1 |
| 20260902163614 | 93 | 196 | 1.0 | 3.0 | 0.00 | 0.00 | 0.00 | 50 | 1016.2 |
| 20260902163112 | 92 | 0.0 | 4.0 | 0.00 | 0.00 | 0.00 | 52 | 1016.3 | |
| 20260902162608 | 92 | 0.0 | 6.0 | 0.00 | 0.00 | 0.00 | 50 | 1016.3 | |
| 20260902162106 | 93 | 1.0 | 6.0 | 0.00 | 0.00 | 0.00 | 51 | 1016.3 |